Weather History for Naples, FL

Change the Weather History Date:

Thursday, February 7, 2013

  Actual Average Record
Temperature  
Mean Temperature 72 °F 66 °F  
Max Temperature 81 °F 76 °F 86 °F (1982)
Min Temperature 62 °F 56 °F 31 °F (1978)
Degree Days  
Heating Degree Days 0 2  
Month to date heating degree days 13 14  
Since 1 July heating degree days 71 194  
Cooling Degree Days 7 3  
Month to date cooling degree days 11 20  
Year to date cooling degree days 204 106  
Growing Degree Days 22 (Base 50)    
Moisture  
Dew Point 64 °F    
Average Humidity 76    
Maximum Humidity 100    
Minimum Humidity 51    
Precipitation  
Precipitation 0.00 in 0.07 in 0.78 in (1958)
Month to date precipitation 0.00 0.50  
Year to date precipitation 0.15 2.35  
Snow  
Snow 0.00 in - - ()
Month to date snowfall 0.0  
Since 1 July snowfall 0.0  
Snow Depth 0.00 in    
Sea Level Pressure  
Sea Level Pressure 30.02 in    
Wind  
Wind Speed 7 mph (SE)    
Max Wind Speed 17 mph    
Max Gust Speed 22 mph    
Visibility 10 miles    
Events      
T = Trace of Precipitation, MM = Missing Value Source: NWS Daily Summary

Daily Weather History Graph

Daily Weather History Graph

Search for Another Location

Airport:

Trip Planner

Search our weather history database for the weather conditions in past years. The results will help you decide how hot, cold, wet, or windy it might be!

Date:

Astronomy

Feb. 07, 2013 Rise Set
Actual Time 7:07 AM EST 6:14 PM EST
Civil Twilight 6:44 AM EST 6:38 PM EST
Nautical Twilight 6:16 AM EST 7:06 PM EST
Astronomical Twilight 5:49 AM EST 7:33 PM EST
Moon 4:37 AM EST (2/7) 3:45 PM EST (2/7)
Length of Visible Light 11h 54m
Length of Day
11h 06m
Waning Crescent, 9% of the Moon is Illuminated
Feb 7
Waning Crescent
Feb 10
New
Feb 17
First Quarter
Feb 25
Full
Mar 4
Last Quarter

Hourly Weather History & Observations

Time (EST) Temp. Heat Index Dew Point Humidity Pressure Visibility Wind Dir Wind Speed Gust Speed Precip Events Conditions
12:53 AM 66.9 °F - 63.0 °F 87% 30.07 in 10.0 mi East 3.5 mph - N/A   Clear
1:53 AM 64.9 °F - 63.0 °F 93% 30.06 in 10.0 mi East 4.6 mph - N/A   Clear
2:53 AM 64.0 °F - 62.1 °F 93% 30.04 in 10.0 mi ENE 3.5 mph - N/A   Clear
3:53 AM 64.0 °F - 63.0 °F 96% 30.03 in 10.0 mi ESE 4.6 mph - N/A   Clear
4:53 AM 64.0 °F - 63.0 °F 96% 30.02 in 10.0 mi ESE 3.5 mph - N/A   Clear
5:53 AM 63.0 °F - 63.0 °F 100% 30.04 in 9.0 mi ESE 3.5 mph - N/A   Clear
6:53 AM 63.0 °F - 62.1 °F 97% 30.06 in 9.0 mi East 3.5 mph - N/A   Clear
7:53 AM 64.9 °F - 63.0 °F 93% 30.06 in 8.0 mi ESE 4.6 mph - N/A   Clear
8:53 AM 70.0 °F - 64.9 °F 84% 30.07 in 10.0 mi ESE 6.9 mph - N/A   Clear
9:53 AM 73.9 °F - 64.0 °F 71% 30.06 in 10.0 mi SE 12.7 mph - N/A   Clear
10:53 AM 77.0 °F - 64.0 °F 64% 30.05 in 10.0 mi SE 12.7 mph - N/A   Clear
11:53 AM 80.1 °F 81.2 °F 62.1 °F 54% 30.03 in 10.0 mi SE 10.4 mph 21.9 mph N/A   Clear
12:53 PM 81.0 °F 81.7 °F 61.0 °F 50% 30.01 in 10.0 mi SE 13.8 mph - N/A   Scattered Clouds
1:53 PM 80.1 °F 81.1 °F 61.0 °F 52% 29.98 in 10.0 mi South 13.8 mph 19.6 mph N/A   Partly Cloudy
2:53 PM 80.1 °F 80.9 °F 60.1 °F 50% 29.97 in 10.0 mi South 13.8 mph - N/A   Clear
3:53 PM 78.1 °F - 64.0 °F 62% 29.96 in 10.0 mi SSW 12.7 mph - N/A   Clear
4:53 PM 77.0 °F - 64.9 °F 66% 29.96 in 10.0 mi South 11.5 mph - N/A   Clear
5:53 PM 75.0 °F - 64.9 °F 71% 29.97 in 10.0 mi South 10.4 mph - N/A   Clear
6:53 PM 72.0 °F - 64.9 °F 78% 29.98 in 10.0 mi South 5.8 mph - N/A   Clear
7:53 PM 70.0 °F - 64.9 °F 84% 29.99 in 10.0 mi SE 4.6 mph - N/A   Clear
8:53 PM 69.1 °F - 66.0 °F 90% 30.01 in 10.0 mi SSE 3.5 mph - N/A   Clear
9:53 PM 69.1 °F - 66.0 °F 90% 30.02 in 10.0 mi Calm Calm - N/A   Clear
10:53 PM 68.0 °F - 64.9 °F 90% 30.00 in 10.0 mi Calm Calm - N/A   Clear
11:53 PM 69.1 °F - 66.0 °F 90% 29.99 in 10.0 mi SSW 8.1 mph - N/A   Clear